Wind_Speed
7 5 2 2 4 2 8 8 9 11 10 10 9 3 9 12 8 6 23 22 25 23 23 23 22 22 22 24 24 21 21 20 18 16 14 14 13 11 9 8 7 5 5 5 6 7 8 10 10
2 7 2 2 3 5 7 7 11 10 11 12 11 5 5 6 7 14 23 25 27 24 22 21 24 23 22 23 24 21 19 17 16 15 14 13 11 10 8 7 6 3 2 3 2 4 4 5 7
4 2 4 3 1 5 6 8 10 10 8 4 5 9 6 4 8 23 17 27 25 24 22 21 23 22 23 22 22 20 17 17 14 13 12 11 10 7 6 5 4 3 3 3 3 2 2 3 4
4 2 1 3 9 7 10 7 5 10 10 8 5 9 9 7 16 13 24 27 24 23 21 23 22 20 21 21 20 19 17 16 15 13 11 9 8 6 5 4 3 4 3 4 4 4 5 5 5
3 2 3 5 9 11 6 3 3 6 2 8 6 8 10 7 11 22 25 24 24 22 20 22 21 20 20 19 19 18 17 16 14 12 10 9 8 7 5 4 3 2 2 3 4 5 6 7 7
3 4 3 8 10 6 3 1 2 3 8 6 14 14 10 12 21 22 23 22 21 21 19 22 19 18 18 18 18 18 15 14 12 11 10 9 8 7 5 5 3 3 3 4 5 5 6 7 8
5 6 9 8 8 7 3 3 1 5 7 7 11 11 10 14 17 22 21 21 20 20 18 22 18 18 17 18 17 15 13 13 12 10 10 9 8 7 6 5 4 4 3 4 5 5 6 7 7
3 2 10 7 6 8 4 3 3 3 8 8 7 6 10 18 21 22 19 19 19 18 16 16 17 15 14 14 13 11 9 9 8 9 10 9 9 8 7 5 6 5 4 4 5 6 6 7 8
2 4 10 10 10 9 6 3 4 3 8 6 4 5 16 25 24 23 21 18 18 17 17 17 16 16 17 16 14 13 16 17 15 11 10 11 6 8 9 9 8 5 5 4 4 6 6 6 6
2 9 11 7 8 10 6 2 4 4 6 8 11 16 23 25 26 25 23 21 20 19 17 19 18 21 18 21 17 20 21 20 21 19 12 10 9 8 9 9 8 4 4 5 4 6 6 5 4
3 9 4 8 7 6 6 5 2 0 4 6 16 23 23 23 24 23 20 19 19 17 16 16 17 19 18 17 17 10 14 15 12 15 15 10 9 8 10 8 4 5 4 4 2 3 3 5 7
0 3 0 3 7 6 6 3 2 1 7 6 18 22 24 22 22 21 20 18 17 16 14 13 14 18 18 15 13 9 8 7 9 12 13 11 6 8 8 8 7 4 3 5 7 5 7 8 7
2 5 1 1 5 4 6 3 5 8 10 16 20 22 21 20 19 17 17 17 16 15 15 14 15 14 15 15 13 5 8 9 8 10 8 7 9 9 7 9 7 4 2 4 5 7 6 7 7
5 6 3 1 4 5 4 3 5 8 14 18 20 22 20 19 18 17 16 16 15 14 13 14 14 13 11 13 13 10 1 8 9 10 10 9 8 8 9 10 9 4 4 5 5 5 6 6 6
3 4 2 3 2 1 6 7 4 17 16 18 20 22 20 18 18 16 15 15 14 13 12 13 13 12 12 13 13 13 11 6 7 10 11 11 10 9 7 6 10 10 6 8 8 7 7 7 7
3 4 1 5 1 2 10 11 11 16 18 17 18 20 19 18 17 15 15 13 14 13 13 12 12 13 12 12 12 11 10 11 8 9 11 12 12 10 8 8 11 11 7 5 6 5 6 6 6
3 2 4 2 1 1 8 8 10 15 16 17 17 18 18 17 17 16 16 16 14 13 13 13 13 13 13 13 12 11 11 8 9 9 10 12 11 10 9 6 5 5 5 6 6 8 8 6 7
3 2 2 4 2 6 7 6 10 14 15 15 17 17 17 18 18 17 16 15 15 15 14 13 13 14 14 12 12 11 10 9 9 9 9 12 10 11 10 9 7 3 5 5 6 8 6 6 4
5 4 3 1 2 5 8 6 10 14 14 15 16 17 17 17 16 16 16 16 15 15 15 15 14 15 16 15 12 11 10 11 11 9 10 10 13 13 14 11 10 9 7 7 7 7 8 6 7
7 6 4 3 2 4 2 5 1 9 12 15 17 17 16 16 15 16 16 17 17 17 17 17 16 17 17 17 14 11 10 9 8 10 10 9 10 12 13 13 13 10 10 10 11 10 8 6 7
10 9 4 5 2 5 6 7 4 5 7 11 14 15 16 17 16 16 17 18 17 18 18 19 18 17 17 17 15 13 12 10 9 9 10 10 10 9 13 14 13 12 11 8 10 10 10 9 8
11 4 1 3 6 6 4 4 7 4 7 8 13 13 15 16 16 15 16 17 18 18 16 17 17 17 17 18 17 17 13 11 9 9 9 9 11 11 11 15 13 13 14 12 11 11 12 11 9
7 3 2 4 8 6 11 8 10 8 12 9 7 5 13 16 18 18 17 15 15 14 15 16 17 17 18 18 20 17 16 12 9 8 10 9 12 10 12 15 16 15 12 12 15 16 13 9 8
3 6 7 7 10 9 4 8 9 5 3 3 4 2 9 16 19 17 17 16 17 16 15 14 15 15 17 18 18 20 15 11 10 11 9 9 6 10 11 13 17 17 14 14 14 15 13 11 12
9 12 9 8 7 2 5 6 11 5 4 4 4 5 5 15 17 17 18 18 16 16 16 14 16 16 16 17 17 18 18 17 15 13 11 11 9 11 12 14 16 18 19 17 15 16 14 14 11
12 12 9 5 4 7 4 5 6 5 5 6 9 10 10 11 13 13 13 12 12 13 14 14 14 16 15 16 17 17 18 19 15 14 13 12 13 12 11 13 16 17 17 16 16 15 14 13 13
10 11 5 6 1 8 5 5 7 6 7 9 12 12 13 13 12 11 9 8 7 9 10 10 12 12 12 12 14 15 16 17 16 17 19 16 17 15 16 17 17 18 18 18 18 16 16 17 14
9 2 8 8 3 9 6 3 5 9 8 8 10 12 13 13 13 11 8 6 6 5 5 6 9 8 8 9 9 9 9 10 13 13 12 16 18 20 19 20 20 19 20 21 22 20 19 18 18
7 9 5 7 6 8 6 8 6 9 10 10 12 12 13 13 13 12 12 12 11 9 8 7 6 6 5 7 6 6 5 5 10 13 12 13 12 16 20 19 21 22 23 23 23 25 24 22 20
2 4 9 8 8 8 9 3 3 12 12 14 14 14 15 15 16 16 16 16 15 13 12 11 9 7 5 4 3 2 5 7 7 9 9 12 13 14 17 21 24 24 24 26 24 23 23 25 25
Wind_Direction
17 353 317 296 227 114 75 77 90 108 110 91 112 63 70 28 6 80 144 151 152 151 153 150 153 156 159 156 156 152 150 151 153 158 161 161 158 159 150 145 139 132 127 115 108 101 101 103 97
341 354 323 288 244 106 75 72 75 62 88 110 102 125 57 76 51 128 144 152 150 152 150 151 154 156 159 159 164 162 157 158 154 155 157 162 162 163 160 158 155 166 168 152 140 115 109 105 109
351 326 299 330 35 85 105 85 88 87 107 103 110 53 41 47 112 139 153 151 152 153 153 161 154 159 163 164 169 174 175 177 173 170 167 166 169 170 179 185 193 207 231 211 209 188 166 141 125
329 293 207 28 86 66 88 99 89 109 84 83 57 81 81 85 131 150 146 148 156 155 157 170 159 161 166 172 176 179 180 182 184 184 182 186 186 193 199 201 219 229 219 220 221 203 189 176 171
325 261 90 79 84 105 99 100 48 98 88 99 92 91 86 121 143 145 148 151 157 158 164 166 168 168 171 176 180 187 187 191 196 195 196 200 199 207 209 220 231 212 198 203 203 201 202 190 186
220 268 119 89 94 98 128 188 133 90 116 124 118 108 86 119 139 148 150 154 155 159 170 167 170 173 179 183 189 194 198 200 205 209 205 209 212 223 222 234 226 202 197 203 205 193 196 202 197
23 57 64 84 92 109 84 138 174 78 94 72 144 94 121 147 154 153 154 156 159 164 176 170 171 171 175 186 193 200 204 207 210 214 217 221 233 237 233 232 208 206 218 221 210 196 194 196 192
38 46 84 66 80 89 118 123 80 54 84 115 145 140 159 161 158 158 157 161 163 171 170 173 177 171 174 172 181 190 195 208 219 235 240 241 240 246 239 219 212 206 206 207 202 200 195 188 183
277 105 86 90 76 97 131 136 104 98 121 97 105 132 151 154 158 160 160 164 169 171 175 179 175 179 183 175 175 195 207 217 220 225 236 250 245 260 264 228 226 206 213 205 196 202 197 193 180
322 82 73 79 93 93 137 126 127 143 134 131 113 120 140 151 161 165 167 169 174 175 177 189 180 170 184 188 212 216 222 223 225 218 219 228 247 234 206 229 230 221 217 206 203 215 199 167 217
76 73 86 107 99 111 122 153 158 173 121 151 150 144 149 155 165 171 173 175 177 175 177 183 183 181 191 207 228 234 225 231 226 217 217 239 234 243 239 229 241 229 220 223 183 221 173 210 204
43 79 98 81 135 134 140 125 112 28 23 134 152 154 154 159 167 174 177 177 177 178 179 185 189 183 195 207 216 245 217 209 202 196 226 235 230 236 230 240 217 241 226 221 200 208 207 208 231
348 30 205 154 159 155 143 139 61 84 94 126 143 156 159 165 165 169 174 179 180 182 184 186 192 191 193 202 212 226 231 229 209 215 229 224 226 229 225 251 238 280 229 230 236 206 219 228 224
351 326 297 248 171 171 190 148 183 117 125 130 147 161 160 163 167 172 178 180 184 184 187 187 189 197 188 189 210 207 254 225 211 217 225 230 224 230 234 252 253 240 251 240 220 227 222 233 232
329 277 155 69 179 222 224 167 178 145 141 141 153 164 168 170 172 178 179 186 183 188 189 192 192 197 196 197 210 216 228 232 208 219 235 229 231 240 247 267 248 246 266 256 243 245 230 227 231
287 240 272 64 257 178 249 107 125 158 154 153 159 168 177 184 189 190 194 183 191 190 194 191 193 200 206 208 219 217 250 241 236 242 230 241 235 245 253 255 289 250 252 225 225 226 224 221 247
221 38 16 86 310 258 240 93 138 169 173 161 163 169 181 186 194 199 197 201 195 193 200 201 200 199 206 215 215 227 228 243 232 234 231 239 238 242 241 267 290 262 210 203 205 224 223 235 234
22 304 357 350 89 236 235 249 140 175 186 177 173 169 175 184 194 197 197 199 203 206 206 209 211 212 216 213 219 219 230 238 233 231 232 231 237 237 248 264 265 245 212 206 219 232 220 222 239
327 305 321 20 9 274 253 253 156 177 195 181 190 180 179 184 182 191 193 198 202 207 211 216 219 222 220 217 216 218 223 230 226 236 243 243 236 242 248 252 258 257 231 231 236 242 234 249 254
285 288 240 124 82 238 284 262 331 179 195 198 193 186 184 180 181 188 194 197 201 205 208 216 219 221 221 221 219 223 232 229 249 249 251 249 242 241 238 243 250 247 248 256 253 238 239 240 242
230 261 351 304 319 207 262 222 159 140 190 190 198 198 189 188 188 192 195 199 203 207 207 211 217 222 223 221 221 231 235 230 239 240 244 253 257 250 243 236 245 248 245 252 262 245 246 241 239
254 52 333 279 259 214 256 153 158 102 121 169 184 193 201 198 197 194 195 199 205 208 207 211 214 222 225 225 219 224 227 236 250 256 256 240 255 246 246 234 237 250 248 243 259 252 250 241 257
56 30 317 301 265 260 186 265 117 140 121 101 105 183 205 198 196 196 196 199 199 204 207 209 217 221 222 228 225 230 236 244 242 240 244 262 251 253 251 234 237 241 245 248 250 259 255 231 251
148 229 223 239 259 241 139 263 123 101 73 125 31 305 219 202 188 187 189 190 193 192 196 204 218 222 226 231 234 237 235 244 240 252 253 253 271 254 258 254 238 239 237 248 252 257 243 247 252
221 243 242 213 198 252 102 241 67 79 60 38 48 64 122 173 179 181 184 189 190 194 192 203 220 227 228 233 235 240 244 237 246 251 253 254 248 257 249 249 251 250 247 246 246 247 239 253 248
210 266 263 244 192 142 148 241 93 72 78 75 85 92 105 133 156 169 177 183 188 197 200 205 221 229 230 233 238 238 242 245 252 256 246 253 259 259 257 253 263 260 255 244 234 237 237 245 243
178 231 318 292 220 273 131 130 142 133 109 99 99 101 102 112 124 134 142 154 171 199 207 211 220 230 228 231 236 240 242 244 253 258 258 262 273 254 266 265 265 260 255 256 242 237 234 229 237
279 101 203 218 197 253 141 255 91 164 135 120 113 112 112 114 114 114 115 128 155 175 192 215 216 215 214 219 238 243 244 252 254 267 286 290 266 269 258 263 264 266 257 252 252 240 243 236 232
178 206 230 311 307 299 217 201 98 150 149 131 117 120 119 114 110 102 95 95 104 102 96 94 129 163 165 202 211 240 283 272 262 281 300 298 294 277 267 263 266 264 260 255 252 254 242 240 236
355 2 283 266 204 237 306 30 130 135 145 133 127 122 117 114 108 102 95 92 93 89 88 89 92 105 120 138 105 326 308 308 280 285 295 301 294 285 278 275 274 266 267 261 248 249 247 249 243
Height
1504 1504 1504 1505 1501 1491 1505 1508 1496 1504 1507 1512 1517 1517 1520 1525 1525 1538 1541 1545 1550 1555 1555 1557 1561 1564 1566 1568 1571 1573 1575 1576 1578 1579 1581 1583 1585 1586 1587 1588 1588 1589 1589 1589 1589 1590 1590 1591 1591
1507 1505 1505 1503 1498 1506 1514 1503 1507 1506 1511 1516 1518 1519 1521 1530 1534 1537 1543 1547 1551 1556 1559 1560 1562 1566 1568 1571 1573 1575 1577 1579 1581 1582 1583 1585 1586 1587 1588 1588 1589 1590 1591 1591 1591 1591 1592 1592 1592
1506 1506 1505 1498 1500 1521 1521 1508 1509 1513 1514 1515 1519 1523 1525 1535 1538 1541 1544 1549 1554 1558 1562 1562 1564 1568 1570 1573 1575 1576 1579 1581 1583 1585 1585 1587 1587 1588 1588 1589 1590 1591 1591 1592 1592 1592 1592 1593 1593
1509 1508 1506 1501 1511 1516 1511 1512 1513 1514 1517 1520 1522 1526 1534 1538 1541 1543 1546 1551 1556 1560 1563 1562 1566 1569 1572 1574 1576 1578 1580 1582 1585 1586 1587 1589 1589 1589 1589 1589 1590 1590 1591 1591 1591 1592 1592 1593 1594
1509 1506 1504 1509 1514 1512 1514 1515 1517 1515 1522 1520 1524 1528 1535 1540 1542 1545 1549 1554 1556 1562 1564 1564 1568 1570 1572 1575 1577 1579 1581 1583 1585 1587 1588 1589 1590 1589 1589 1589 1590 1590 1590 1590 1591 1592 1592 1593 1596
1505 1504 1505 1514 1517 1513 1515 1517 1517 1517 1522 1523 1526 1529 1539 1544 1545 1548 1552 1556 1559 1563 1565 1564 1568 1571 1574 1576 1579 1580 1583 1585 1586 1588 1589 1590 1590 1590 1590 1590 1590 1589 1590 1590 1590 1591 1591 1592 1594
1504 1502 1511 1511 1518 1515 1516 1518 1518 1518 1519 1523 1526 1530 1542 1545 1547 1549 1553 1557 1561 1564 1565 1565 1569 1572 1575 1578 1581 1583 1584 1587 1586 1588 1589 1590 1591 1590 1590 1590 1590 1590 1590 1591 1591 1591 1592 1592 1593
1509 1502 1509 1512 1517 1520 1517 1519 1521 1521 1525 1527 1528 1530 1540 1543 1547 1551 1555 1558 1562 1564 1567 1570 1571 1573 1577 1580 1583 1584 1586 1587 1588 1589 1590 1591 1591 1590 1590 1591 1590 1590 1590 1591 1591 1591 1592 1593 1594
1509 1503 1512 1515 1512 1516 1518 1517 1522 1524 1525 1528 1531 1531 1533 1540 1546 1551 1555 1558 1561 1564 1567 1570 1573 1575 1576 1578 1581 1582 1581 1584 1586 1587 1589 1590 1592 1592 1591 1592 1589 1590 1590 1591 1591 1591 1592 1593 1594
1504 1505 1510 1509 1510 1513 1517 1518 1521 1523 1525 1529 1532 1534 1537 1542 1545 1549 1553 1556 1560 1563 1566 1566 1571 1573 1575 1575 1574 1579 1579 1580 1582 1584 1587 1590 1590 1591 1593 1591 1590 1590 1590 1590 1591 1591 1592 1594 1598
1509 1508 1508 1510 1513 1514 1516 1519 1522 1521 1521 1524 1531 1534 1538 1542 1546 1550 1553 1556 1559 1562 1566 1566 1569 1571 1573 1574 1577 1577 1577 1579 1580 1583 1587 1588 1589 1592 1590 1590 1590 1589 1591 1592 1592 1592 1595 1597 1598
1507 1509 1511 1512 1515 1515 1516 1518 1520 1522 1523 1523 1529 1534 1538 1543 1546 1550 1553 1556 1560 1563 1566 1568 1570 1572 1572 1575 1576 1576 1578 1579 1580 1582 1585 1587 1588 1591 1590 1587 1588 1589 1590 1591 1591 1595 1596 1596 1597
1507 1509 1511 1512 1513 1514 1516 1517 1519 1523 1525 1526 1531 1536 1540 1543 1547 1550 1553 1557 1560 1563 1565 1568 1570 1569 1572 1573 1575 1577 1578 1579 1581 1583 1584 1587 1589 1588 1589 1586 1587 1588 1590 1591 1592 1593 1595 1595 1596
1510 1510 1509 1510 1511 1513 1514 1517 1519 1526 1527 1529 1533 1537 1541 1544 1547 1551 1554 1557 1560 1563 1565 1568 1569 1570 1571 1573 1574 1577 1577 1579 1580 1585 1586 1584 1586 1587 1587 1585 1585 1588 1590 1591 1591 1592 1594 1595 1596
1509 1506 1506 1509 1509 1509 1512 1518 1517 1524 1528 1530 1533 1537 1541 1544 1548 1551 1554 1557 1560 1562 1565 1567 1569 1571 1572 1573 1574 1574 1578 1580 1580 1582 1583 1583 1583 1583 1583 1583 1584 1586 1588 1587 1589 1590 1592 1594 1594
1507 1505 1511 1509 1510 1510 1511 1518 1518 1524 1526 1529 1532 1537 1541 1544 1548 1551 1553 1556 1559 1562 1564 1566 1568 1570 1571 1573 1574 1576 1576 1577 1579 1580 1580 1580 1580 1581 1582 1583 1582 1584 1585 1587 1589 1591 1592 1593 1594
1506 1511 1514 1510 1510 1509 1510 1509 1518 1522 1524 1527 1531 1535 1539 1543 1547 1549 1552 1555 1558 1560 1562 1563 1565 1568 1570 1570 1573 1573 1575 1575 1577 1578 1578 1579 1578 1580 1581 1582 1582 1581 1584 1586 1589 1588 1588 1590 1592
1518 1514 1513 1514 1510 1509 1507 1509 1516 1522 1523 1525 1528 1532 1537 1540 1543 1547 1550 1554 1556 1557 1560 1561 1563 1565 1566 1568 1569 1571 1573 1574 1575 1576 1577 1576 1577 1578 1579 1581 1581 1582 1583 1586 1587 1586 1586 1589 1590
1510 1513 1515 1509 1509 1510 1506 1505 1504 1517 1520 1522 1526 1530 1534 1537 1541 1545 1548 1551 1553 1555 1557 1560 1562 1563 1565 1566 1568 1570 1571 1571 1571 1572 1572 1573 1574 1575 1577 1579 1580 1580 1581 1583 1584 1586 1586 1587 1588
1510 1513 1509 1506 1508 1510 1505 1506 1504 1509 1515 1518 1523 1527 1531 1535 1539 1543 1546 1548 1551 1553 1554 1556 1559 1561 1562 1564 1566 1569 1569 1570 1569 1569 1570 1571 1572 1573 1575 1576 1578 1579 1580 1581 1582 1584 1585 1586 1588
1507 1509 1507 1510 1505 1504 1507 1506 1508 1510 1512 1516 1520 1523 1527 1532 1536 1540 1543 1546 1548 1550 1551 1553 1556 1558 1560 1562 1564 1565 1566 1566 1567 1567 1568 1568 1569 1570 1571 1573 1574 1576 1578 1580 1581 1583 1584 1584 1587
1503 1503 1508 1510 1509 1513 1499 1515 1507 1505 1508 1514 1517 1521 1524 1529 1534 1537 1541 1543 1545 1547 1550 1551 1553 1555 1557 1559 1561 1561 1564 1564 1566 1566 1566 1567 1567 1567 1568 1570 1571 1572 1574 1577 1578 1579 1581 1581 1582
1506 1505 1508 1507 1507 1506 1503 1508 1506 1501 1510 1514 1516 1518 1520 1524 1529 1533 1537 1541 1543 1546 1548 1549 1550 1552 1554 1556 1558 1560 1561 1564 1565 1565 1566 1564 1565 1565 1565 1566 1567 1569 1571 1573 1573 1575 1578 1580 1577
1506 1505 1506 1505 1503 1518 1499 1507 1500 1503 1512 1513 1516 1518 1518 1519 1524 1529 1533 1537 1539 1542 1545 1547 1548 1549 1551 1552 1555 1557 1560 1562 1563 1562 1563 1562 1561 1564 1563 1564 1564 1565 1566 1567 1568 1569 1573 1575 1576
1505 1503 1515 1521 1518 1514 1500 1508 1506 1507 1511 1515 1516 1515 1514 1516 1522 1527 1530 1534 1539 1541 1542 1544 1546 1547 1549 1550 1552 1554 1556 1558 1557 1560 1560 1559 1560 1559 1559 1560 1560 1561 1562 1563 1565 1566 1568 1571 1574
1498 1496 1506 1532 1518 1506 1506 1511 1502 1507 1511 1514 1515 1516 1517 1518 1522 1526 1531 1534 1537 1540 1540 1541 1543 1544 1547 1548 1549 1550 1552 1554 1555 1556 1557 1558 1558 1557 1555 1556 1556 1556 1558 1558 1560 1562 1564 1567 1570
1499 1507 1488 1498 1499 1509 1497 1500 1501 1505 1509 1512 1516 1518 1520 1523 1525 1528 1531 1533 1534 1538 1539 1540 1541 1542 1544 1546 1546 1547 1548 1550 1552 1552 1552 1551 1550 1552 1550 1550 1551 1551 1552 1554 1556 1558 1560 1561 1564
1495 1490 1505 1497 1523 1523 1507 1507 1495 1504 1508 1512 1515 1519 1522 1525 1526 1528 1531 1532 1534 1536 1537 1538 1540 1541 1542 1543 1544 1545 1546 1547 1549 1549 1548 1547 1545 1545 1545 1545 1545 1546 1547 1548 1551 1554 1556 1557 1559
1498 1495 1493 1489 1495 1508 1515 1502 1487 1497 1507 1512 1516 1519 1522 1525 1527 1529 1531 1532 1533 1535 1536 1537 1538 1540 1541 1541 1542 1543 1544 1545 1547 1546 1544 1542 1541 1541 1540 1540 1540 1540 1541 1542 1544 1546 1551 1551 1552
1495 1497 1493 1501 1505 1495 1499 1498 1496 1499 1509 1514 1519 1521 1524 1527 1529 1531 1533 1534 1535 1536 1537 1537 1539 1540 1541 1542 1543 1544 1544 1543 1545 1544 1542 1539 1538 1537 1535 1533 1533 1534 1535 1536 1537 1540 1542 1545 1547